Date String (YYYY-MM-DD hh:mm:ss) UTC,Instrument flags,Ambient pressure (hPa),Sample flow (lpm),Bypass flow (lpm),Sample temperature (°C),Ambient temperature (°C),ASC tube jacket temperature (°C),LED temperature (°C),Box temperature (°C),Sample RH (%),Span deviation,Mass concentration (μg/m³),Mass concentration (μg/m³),Mass concentration (μg/m³)
DateTimeUTC,F1_M11,P_M11,Q1_M11,Q2_M11,T1_M11,T2_M11,T3_M11,T4_M11,T5_M11,U1_M11,ZSPAN_M11,X0_M11,X2_M11,X1_M11
2022-12-23 21:00:00,,0830.5,4.95,0.00,22.5,21.2,00.0,31.3,24.3,03.3,0002.8,0012.05,0006.78,0006.15
2022-12-23 21:01:00,,0830.5,5.02,0.00,22.5,21.2,00.0,31.3,24.3,03.3,0002.6,0011.96,0006.75,0006.11
2022-12-23 21:02:00,,0830.5,5.02,0.00,22.5,21.2,00.0,31.3,24.3,03.3,0003.0,0012.62,0006.73,0006.09
2022-12-23 21:03:00,,0830.5,4.99,0.00,22.6,21.7,00.0,31.3,24.4,03.3,0003.4,0012.80,0006.74,0006.10
2022-12-23 21:04:00,,0830.5,4.97,0.00,22.7,22.5,00.0,31.3,24.6,03.3,0003.3,0013.09,0006.73,0006.10
2022-12-23 21:05:00,,0830.6,5.04,0.00,22.8,22.8,00.0,31.3,24.8,03.3,0003.2,0013.54,0006.74,0006.10
2022-12-23 21:06:00,,0830.6,4.94,0.00,22.8,22.6,00.0,31.4,24.7,03.2,0002.9,0014.01,0006.78,0006.13
2022-12-23 21:07:00,,0830.6,5.04,0.00,22.8,22.4,00.0,31.4,24.7,03.2,0003.0,0014.18,0006.77,0006.13
2022-12-23 21:08:00,,0830.6,5.02,0.00,22.8,22.2,00.0,31.5,24.7,03.2,0002.8,0013.62,0006.80,0006.15
2022-12-23 21:09:00,,0830.5,4.95,0.00,22.8,22.1,00.0,31.5,24.7,03.2,0003.0,0013.46,0006.88,0006.19
2022-12-23 21:10:00,,0830.5,5.03,0.00,22.8,21.9,00.0,31.5,24.7,03.3,0002.9,0013.67,0006.92,0006.24
2022-12-23 21:11:00,,0830.4,5.03,0.00,22.8,21.9,00.0,31.5,24.7,03.2,0002.8,0014.23,0007.00,0006.32
2022-12-23 21:12:00,,0830.5,4.97,0.00,22.8,21.8,00.0,31.5,24.7,03.1,0002.9,0014.73,0007.03,0006.37
2022-12-23 21:13:00,,0830.5,4.99,0.00,22.9,21.8,00.0,31.5,24.6,03.1,0002.8,0014.08,0007.00,0006.36
2022-12-23 21:14:00,,0830.6,5.01,0.00,22.9,21.7,00.0,31.5,24.7,03.1,0002.6,0013.83,0006.97,0006.32
2022-12-23 21:15:00,,0830.6,5.03,0.00,22.8,21.6,00.0,31.5,24.6,03.2,0002.7,0013.98,0006.94,0006.28
2022-12-23 21:16:00,,0830.6,4.96,0.00,22.8,21.6,00.0,31.6,24.6,03.2,0002.8,0013.27,0006.86,0006.21
2022-12-23 21:17:00,,0830.6,5.00,0.00,22.8,21.6,00.0,31.6,24.6,03.0,0002.7,0012.84,0006.72,0006.08
2022-12-23 21:18:00,,0830.6,5.02,0.00,22.8,21.5,00.0,31.6,24.6,03.1,0002.4,0012.89,0006.66,0006.00
2022-12-23 21:19:00,,0830.6,5.01,0.00,22.8,21.5,00.0,31.6,24.6,03.1,0002.0,0013.11,0006.54,0005.91
2022-12-23 21:20:00,,0830.6,4.97,0.00,22.8,21.5,00.0,31.6,24.6,03.1,0001.7,0013.40,0006.38,0005.77
2022-12-23 21:21:00,,0830.6,5.00,0.00,22.8,21.4,00.0,31.6,24.6,03.1,0001.2,0013.87,0006.24,0005.61
2022-12-23 21:22:00,,0830.6,5.02,0.00,22.8,21.4,00.0,31.6,24.6,03.1,0000.9,0013.85,0006.11,0005.43
2022-12-23 21:23:00,,0830.7,5.01,0.00,22.8,21.3,00.0,31.6,24.6,03.1,0000.8,0013.40,0005.98,0005.27
2022-12-23 21:24:00,,0830.6,4.97,0.00,22.8,21.3,00.0,31.6,24.6,03.1,0001.2,0013.24,0005.88,0005.17
2022-12-23 21:25:00,,0830.7,4.97,0.00,22.8,21.3,00.0,31.6,24.6,03.1,0001.3,0013.25,0005.80,0005.09
2022-12-23 21:26:00,,0830.6,5.03,0.00,22.8,21.3,00.0,31.6,24.6,03.2,0001.5,0012.99,0005.71,0005.01
2022-12-23 21:27:00,,0830.6,5.03,0.00,22.7,21.2,00.0,31.6,24.5,03.1,0001.6,0012.97,0005.66,0004.95
2022-12-23 21:28:00,,0830.6,5.00,0.00,22.7,21.2,00.0,31.6,24.5,03.1,0001.2,0013.05,0005.65,0004.94
2022-12-23 21:29:00,,0830.6,4.96,0.00,22.7,21.2,00.0,31.5,24.5,03.1,0001.7,0012.84,0005.63,0004.94
2022-12-23 21:30:00,,0830.6,5.02,0.00,22.7,21.1,00.0,31.5,24.5,03.2,0002.1,0012.46,0005.68,0004.95
2022-12-23 21:31:00,,0830.6,5.02,0.00,22.7,21.1,00.0,31.5,24.4,03.2,0002.2,0012.33,0005.73,0004.98
2022-12-23 21:32:00,,0830.6,5.01,0.00,22.7,21.7,00.0,31.5,24.6,03.2,0002.6,0011.77,0005.71,0004.98
2022-12-23 21:33:00,,0830.8,4.96,0.00,22.8,22.5,00.0,31.5,24.8,03.2,0003.1,0010.93,0005.71,0005.00
2022-12-23 21:34:00,,0830.8,5.03,0.00,22.9,22.5,00.0,31.5,24.9,03.1,0002.9,0010.53,0005.71,0005.06
2022-12-23 21:35:00,,0830.8,5.00,0.00,22.9,22.4,00.0,31.6,24.8,03.1,0002.6,0010.54,0005.77,0005.11
2022-12-23 21:36:00,,0830.7,4.96,0.00,22.9,22.2,00.0,31.6,24.8,03.1,0002.1,0010.53,0005.83,0005.15
2022-12-23 21:37:00,,0830.7,5.02,0.00,22.9,22.0,00.0,31.6,24.8,03.1,0001.5,0010.43,0005.87,0005.21
2022-12-23 21:38:00,,0830.8,5.02,0.00,22.9,21.9,00.0,31.6,24.8,03.1,0001.3,0010.73,0005.98,0005.27
2022-12-23 21:39:00,,0830.8,5.00,0.00,22.9,21.8,00.0,31.6,24.8,03.1,0001.7,0011.36,0006.04,0005.33
2022-12-23 21:40:00,,0830.7,4.96,0.00,22.9,21.7,00.0,31.6,24.7,03.2,0001.5,0011.77,0006.16,0005.41
2022-12-23 21:41:00,,0830.7,5.01,0.00,22.9,21.7,00.0,31.6,24.7,03.2,0002.0,0011.85,0006.24,0005.49
2022-12-23 21:42:00,,0830.8,5.02,0.00,22.9,21.6,00.0,31.6,24.7,03.2,0002.0,0012.14,0006.28,0005.55
2022-12-23 21:43:00,,0830.8,5.01,0.00,22.9,21.6,00.0,31.6,24.7,03.2,0002.0,0012.42,0006.39,0005.68
2022-12-23 21:44:00,,0830.8,4.96,0.00,22.9,21.5,00.0,31.6,24.7,03.3,0001.7,0012.55,0006.50,0005.81
2022-12-23 21:45:00,,0830.7,4.99,0.00,22.9,21.5,00.0,31.6,24.7,03.3,0002.0,0012.68,0006.62,0005.94
2022-12-23 21:46:00,,0830.6,5.02,0.00,22.9,21.5,00.0,31.6,24.7,03.3,0002.1,0012.82,0006.76,0006.06
2022-12-23 21:47:00,,0830.6,5.02,0.00,22.9,21.5,00.0,31.6,24.6,03.4,0002.4,0013.28,0006.92,0006.25
2022-12-23 21:48:00,,0830.6,4.97,0.00,22.8,21.4,00.0,31.6,24.6,03.4,0002.8,0013.54,0007.15,0006.47
2022-12-23 21:49:00,,0830.6,4.99,0.00,22.8,21.4,00.0,31.6,24.6,03.5,0002.6,0013.40,0007.35,0006.70
2022-12-23 21:50:00,,0830.6,5.01,0.00,22.8,21.4,00.0,31.6,24.6,03.5,0002.8,0013.39,0007.71,0007.05
2022-12-23 21:51:00,,0830.6,5.02,0.00,22.8,21.3,00.0,31.6,24.6,03.5,0003.4,0014.13,0008.07,0007.47
2022-12-23 21:52:00,,0830.6,4.99,0.00,22.8,21.3,00.0,31.6,24.6,03.5,0003.4,0014.55,0008.41,0007.87
2022-12-23 21:53:00,,0830.8,4.96,0.00,22.8,21.3,00.0,31.6,24.6,03.5,0003.4,0014.83,0008.82,0008.26
2022-12-23 21:54:00,,0830.8,5.02,0.00,22.8,21.5,00.0,31.6,24.7,03.5,0003.6,0015.18,0009.20,0008.63
2022-12-23 21:55:00,,0830.8,5.01,0.00,22.9,22.2,00.0,31.6,24.8,03.5,0003.3,0015.74,0009.56,0009.01
2022-12-23 21:56:00,,0830.8,4.96,0.00,23.0,22.6,00.0,31.6,24.9,03.5,0003.1,0016.25,0009.91,0009.37
2022-12-23 21:57:00,,0830.7,5.03,0.00,23.0,22.4,00.0,31.6,24.9,03.5,0003.3,0016.74,0010.27,0009.73
2022-12-23 21:58:00,,0830.8,5.01,0.00,23.0,22.2,00.0,31.7,24.9,03.5,0003.3,0016.81,0010.55,0010.03
2022-12-23 21:59:00,,0830.8,4.97,0.00,23.0,22.0,00.0,31.7,24.8,03.5,0003.3,0017.13,0010.80,0010.29
